Regional Weather Roundup
Issued by NWS

Home | Current Version | Previous Version | Graphics & Text | Print | Product List | Glossary On
Versions: 1 2 3 4 5 6 7 8 9 10 11 12 13 14 15 16 17 18 19 20 21 22 23 24 25 26 27 28 29 30 31 32 33 34 35 36 37 38 39 40 41 42 43 44 45 46 47 48 49 50
038
ASUS45 KBOI 260210
RWRID

IDAHO REGIONAL WEATHER ROUNDUP
NATIONAL WEATHER SERVICE BOISE ID
800 PM MDT THU MAY 25 2017

NOTE: "FAIR" INDICATES FEW OR NO CLOUDS BELOW 12000 FEET
WITH NO SIGNIFICANT WEATHER AND/OR OBSTRUCTIONS TO VISIBILITY

IDZ012-014-260300-
SOUTHWEST IDAHO


CITY           SKY/WX    TMP DP  RH WIND       PRES   REMARKS
BOISE          PTSUNNY   63  32  31 W16       29.72R
CALDWELL       PTSUNNY   61  36  39 W16       29.73
MOUNTAIN HOME  PTSUNNY   64  30  27 NW9       29.72R
$$

IDZ016-017-260300-
SOUTHCENTRAL IDAHO


CITY           SKY/WX    TMP DP  RH WIND       PRES   REMARKS
BURLEY         PTCLDY    61  29  29 N3        29.74R
JEROME         PTCLDY    61  28  28 W5        29.74R
TWIN FALLS     PTCLDY    61  30  31 NW3       29.74S
$$

IDZ019>023-260300-
SOUTHEAST IDAHO


CITY           SKY/WX    TMP DP  RH WIND       PRES   REMARKS
IDAHO FALLS    MOCLDY    57  36  45 W3        29.78R
POCATELLO      CLOUDY    60  27  28 CALM      29.76S
REXBURG        PTCLDY    58  25  28 W5        29.77R
$$

IDZ006-010-011-018-031-032-260300-
CENTRAL IDAHO MOUNTAINS


CITY           SKY/WX    TMP DP  RH WIND       PRES   REMARKS
MCCALL         LGT RAIN  44  40  85 NW3       29.80R
HAILEY         MOCLDY    54  28  37 SW6       29.78R
STANLEY          N/A     43  35  73 NW7       29.82R
SALMON         CLOUDY    55  36  47 N9        29.75R
CHALLIS        LGT RAIN  50  36  58 NW8G16    29.79R
$$

IDZ002-004-006-007-026-260300-
NORTHERN IDAHO


CITY           SKY/WX    TMP DP  RH WIND       PRES   REMARKS
LEWISTON       PTSUNNY   61  39  44 S5        29.82R
LOWELL           N/A     61  40  45 SE7       29.79S
COEUR D`ALENE  PTSUNNY   64  40  41 W8        29.82S
MULLAN PASS    CLOUDY    42  35  76 N7        29.87R
$$




USA.gov is the U.S. government's official web portal to all federal, state and local government web resources and services.